Home   Weather   Columbus Park   Past weeks
Flag for USA

Past Weather in Columbus Park, Wisconsin, USA — Yesterday and Last 2 Weeks

Now
80 °F

Scattered clouds.


Feels Like: 83 °F
Forecast: 88 / 74 °F
Wind: 6 mph from South

Location: Kenosha Regional Airport

Current Time: Jul 8, 2020 at 10:18:30 am

Latest Report: Jul 8, 2020 at 8:53 am


Visibility: 10 mi

Pressure: 29.95 "Hg

Humidity: 71%

Dew Point: 70 °F

Location of Columbus ParkLocation

Past Weather in Columbus Park — Graph

°F

Columbus Park Temperature Yesterday

Maximum temperature yesterday: 93 °F (at 2:53 pm)
Minimum temperature yesterday: 71 °F (at 4:53 am)
Average temperature yesterday: 80 °F

High & Low Weather Summary for the Past Weeks

 TemperatureHumidityPressure
High93 °F (Jul 7, 2:53 pm)97% (Jun 28, 4:09 am)30.08 "Hg (Jun 28, 4:09 am)
Low57 °F (Jun 25, 1:53 am)38% (Jun 25, 1:53 pm)29.75 "Hg (Jun 23, 11:53 am)
Average75 °F72%29.92 "Hg
* Reported Jun 23 8:53 am — Jul 8 8:53 am, Columbus Park. Weather by CustomWeather, © 2020

Note: Actual official high and low records may vary slightly from our data, if they occured in-between our weather recording intervals... More about our weather records

Columbus Park Weather History for the Previous 24 Hours

Scroll right to see more
 ConditionsComfort  
Time TempWeatherWind HumidityBarometerVisibility
8:53 am
Wed, Jul 8
80 °FScattered clouds.6 mph71%29.95 "Hg10 mi
7:53 am78 °FPassing clouds.8 mph71%29.98 "Hg10 mi
6:53 am74 °FBroken clouds.No wind88%29.96 "Hg10 mi
6:16 am69 °FFog.5 mph96%29.97 "Hg3 mi
6:09 am68 °FFog.3 mph96%29.97 "Hg1 mi
6:01 am68 °FFog.No wind93%29.97 "Hg0 mi
5:35 am68 °FFog.3 mph90%29.96 "Hg0 mi
4:53 am68 °FClear.No wind93%29.94 "Hg7 mi
3:53 am70 °FPassing clouds.No wind93%29.92 "Hg10 mi
2:53 am71 °FPassing clouds.No wind87%29.92 "Hg10 mi
1:53 am72 °FClear.3 mph87%29.92 "Hg10 mi
12:53 am72 °FClear.6 mph87%29.93 "Hg10 mi
11:53 pm
Tue, Jul 7
73 °FOvercast.5 mph84%29.92 "Hg10 mi
10:53 pm72 °FLight rain. Passing clouds.7 mph87%29.94 "Hg10 mi
9:53 pm72 °FLight rain. Passing clouds.No wind87%29.97 "Hg10 mi
9:06 pm72 °FLight rain. Passing clouds.7 mph87%29.99 "Hg10 mi
8:53 pm72 °FPartly cloudy.9 mph84%29.96 "Hg10 mi
8:12 pm74 °FThundershowers. Overcast.8 mph79%29.99 "Hg10 mi
7:53 pm76 °FThunderstorms. Partly sunny.15 mph74%29.97 "Hg10 mi
6:53 pm85 °FPassing clouds.8 mph59%29.90 "Hg10 mi
5:53 pm88 °FSunny.10 mph52%29.89 "Hg10 mi
4:53 pm89 °FScattered clouds.14 mph52%29.89 "Hg10 mi
3:53 pm93 °FScattered clouds.6 mph46%29.90 "Hg10 mi
2:53 pm93 °FPassing clouds.6 mph44%29.91 "Hg10 mi
1:53 pm89 °FPassing clouds.No wind50%29.93 "Hg10 mi
12:53 pm91 °FPartly sunny.7 mph54%29.95 "Hg10 mi
11:53 am88 °FPartly sunny.8 mph52%29.96 "Hg10 mi
10:53 am89 °FScattered clouds.8 mph53%29.97 "Hg10 mi
Weather by CustomWeather, © 2020

See weather overview